| time (UTC) | temp F | wind direction | speed MPH | gust MPH | rain 1hr in | rain 24hr in | rain mn in | humidity % | barometer mb |
| 20260506182914 | 71 | 227 | 4.0 | 8.0 | 0.00 | 0.00 | 0.00 | 76 | 1007.6 |
| 20260506182016 | 71 | 234 | 5.0 | 17.0 | 0.00 | 0.00 | 0.00 | 75 | 1007.7 |
| 20260506180903 | 72 | 228 | 5.0 | 14.0 | 0.00 | 0.00 | 0.00 | 74 | 1007.9 |
| 20260506180004 | 72 | 221 | 3.0 | 11.0 | 0.00 | 0.00 | 0.00 | 75 | 1008.1 |
| 20260506175403 | 72 | 226 | 4.0 | 12.0 | 0.00 | 0.00 | 0.00 | 75 | 1008.0 |
| 20260506174503 | 71 | 230 | 3.0 | 11.0 | 0.00 | 0.00 | 0.00 | 76 | 1008.0 |
| 20260506173603 | 71 | 228 | 3.0 | 9.0 | 0.00 | 0.00 | 0.00 | 77 | 1008.0 |
| 20260506172703 | 70 | 231 | 3.0 | 11.0 | 0.00 | 0.00 | 0.00 | 78 | 1008.4 |
| 20260506172017 | 70 | 223 | 2.0 | 6.0 | 0.00 | 0.00 | 0.00 | 80 | 1008.3 |
| 20260506171114 | 70 | 230 | 2.0 | 8.0 | 0.00 | 0.00 | 0.00 | 79 | 1008.5 |
| 20260506170003 | 69 | 229 | 3.0 | 10.0 | 0.00 | 0.00 | 0.00 | 79 | 1008.7 |
| 20260506165613 | 69 | 233 | 4.0 | 12.0 | 0.00 | 0.00 | 0.00 | 78 | 1009.1 |
| 20260506164503 | 69 | 234 | 5.0 | 14.0 | 0.00 | 0.00 | 0.00 | 78 | 1009.3 |
| 20260506163813 | 69 | 237 | 4.0 | 12.0 | 0.00 | 0.00 | 0.00 | 79 | 1009.5 |
| 20260506162915 | 70 | 230 | 4.0 | 11.0 | 0.00 | 0.00 | 0.00 | 77 | 1009.5 |
| 20260506161803 | 70 | 236 | 4.0 | 13.0 | 0.00 | 0.00 | 0.00 | 74 | 1009.8 |
| 20260506160903 | 72 | 227 | 6.0 | 14.0 | 0.00 | 0.00 | 0.00 | 71 | 1009.7 |
| 20260506160003 | 73 | 228 | 7.0 | 22.0 | 0.00 | 0.00 | 0.00 | 68 | 1009.7 |
| 20260506155403 | 73 | 228 | 5.0 | 22.0 | 0.00 | 0.00 | 0.00 | 68 | 1009.7 |
| 20260506154503 | 74 | 233 | 7.0 | 19.0 | 0.00 | 0.00 | 0.00 | 66 | 1009.8 |
| 20260506153603 | 73 | 237 | 5.0 | 17.0 | 0.00 | 0.00 | 0.00 | 69 | 1009.7 |
| 20260506152703 | 73 | 234 | 3.0 | 8.0 | 0.00 | 0.00 | 0.00 | 70 | 1009.6 |
| 20260506151803 | 72 | 234 | 6.0 | 15.0 | 0.00 | 0.00 | 0.00 | 69 | 1009.6 |
| 20260506151115 | 72 | 234 | 6.0 | 14.0 | 0.00 | 0.00 | 0.00 | 68 | 1009.9 |
| 20260506150003 | 73 | 232 | 9.0 | 20.0 | 0.00 | 0.00 | 0.00 | 66 | 1009.7 |
| 20260506145403 | 74 | 237 | 7.0 | 17.0 | 0.00 | 0.00 | 0.00 | 66 | 1009.8 |
| 20260506144717 | 74 | 235 | 5.0 | 16.0 | 0.00 | 0.00 | 0.00 | 68 | 1009.7 |
| 20260506143603 | 74 | 223 | 5.0 | 15.0 | 0.00 | 0.00 | 0.00 | 69 | 1009.5 |
| 20260506142703 | 73 | 228 | 5.0 | 13.0 | 0.00 | 0.00 | 0.00 | 70 | 1009.6 |
| 20260506141803 | 73 | 229 | 5.0 | 13.0 | 0.00 | 0.00 | 0.00 | 71 | 1009.6 |
| 20260506140903 | 72 | 238 | 6.0 | 16.0 | 0.00 | 0.00 | 0.00 | 71 | 1009.4 |
| 20260506140003 | 72 | 238 | 5.0 | 17.0 | 0.00 | 0.00 | 0.00 | 71 | 1009.7 |
| 20260506135403 | 72 | 230 | 5.0 | 13.0 | 0.00 | 0.00 | 0.00 | 72 | 1009.7 |
| 20260506134503 | 72 | 221 | 4.0 | 19.0 | 0.00 | 0.00 | 0.00 | 72 | 1009.7 |
| 20260506133603 | 71 | 216 | 4.0 | 14.0 | 0.00 | 0.00 | 0.00 | 74 | 1009.8 |
| 20260506132703 | 71 | 228 | 6.0 | 16.0 | 0.00 | 0.00 | 0.00 | 74 | 1010.0 |
| 20260506131803 | 71 | 227 | 6.0 | 22.0 | 0.00 | 0.00 | 0.00 | 75 | 1010.1 |
| 20260506131117 | 70 | 225 | 6.0 | 19.0 | 0.00 | 0.00 | 0.00 | 75 | 1010.1 |
| 20260506130004 | 70 | 226 | 5.0 | 11.0 | 0.00 | 0.00 | 0.00 | 77 | 1010.0 |
| 20260506125616 | 69 | 230 | 4.0 | 11.0 | 0.00 | 0.00 | 0.00 | 77 | 1010.0 |
| 20260506124503 | 68 | 229 | 3.0 | 12.0 | 0.00 | 0.00 | 0.00 | 80 | 1010.0 |
| 20260506123815 | 67 | 236 | 3.0 | 11.0 | 0.00 | 0.00 | 0.00 | 80 | 1010.1 |
| 20260506122703 | 67 | 217 | 4.0 | 11.0 | 0.00 | 0.00 | 0.00 | 80 | 1010.2 |
| 20260506121803 | 67 | 220 | 4.0 | 12.0 | 0.00 | 0.00 | 0.00 | 80 | 1010.2 |
| 20260506120903 | 67 | 226 | 5.0 | 11.0 | 0.00 | 0.00 | 0.00 | 80 | 1010.3 |
| 20260506120003 | 67 | 231 | 4.0 | 11.0 | 0.00 | 0.00 | 0.00 | 80 | 1010.4 |
| 20260506115403 | 67 | 227 | 5.0 | 13.0 | 0.00 | 0.00 | 0.00 | 81 | 1010.4 |
| 20260506114503 | 66 | 231 | 5.0 | 16.0 | 0.00 | 0.00 | 0.00 | 81 | 1010.5 |
| 20260506113603 | 66 | 228 | 5.0 | 12.0 | 0.00 | 0.00 | 0.00 | 81 | 1010.5 |
| 20260506112703 | 65 | 230 | 5.0 | 12.0 | 0.00 | 0.00 | 0.00 | 83 | 1010.6 |
| 20260506111803 | 65 | 223 | 4.0 | 12.0 | 0.00 | 0.00 | 0.00 | 83 | 1010.6 |
| 20260506110903 | 65 | 226 | 4.0 | 12.0 | 0.00 | 0.00 | 0.00 | 83 | 1010.4 |
| 20260506110003 | 65 | 223 | 3.0 | 12.0 | 0.00 | 0.00 | 0.00 | 84 | 1010.4 |
| 20260506105403 | 64 | 228 | 4.0 | 13.0 | 0.00 | 0.00 | 0.00 | 85 | 1010.3 |
| 20260506104714 | 64 | 227 | 4.0 | 13.0 | 0.00 | 0.00 | 0.00 | 86 | 1010.4 |
| 20260506103816 | 63 | 229 | 3.0 | 11.0 | 0.00 | 0.00 | 0.00 | 87 | 1010.5 |
| 20260506102703 | 62 | 229 | 4.0 | 11.0 | 0.00 | 0.00 | 0.00 | 88 | 1010.4 |
| 20260506101803 | 62 | 230 | 3.0 | 12.0 | 0.00 | 0.00 | 0.00 | 88 | 1010.2 |
| 20260506100903 | 62 | 228 | 3.0 | 11.0 | 0.00 | 0.00 | 0.00 | 88 | 1010.2 |
| 20260506100004 | 63 | 223 | 4.0 | 11.0 | 0.00 | 0.00 | 0.00 | 87 | 1010.1 |
| 20260506095403 | 63 | 220 | 4.0 | 11.0 | 0.00 | 0.00 | 0.00 | 88 | 1010.0 |
| 20260506094503 | 63 | 225 | 3.0 | 11.0 | 0.00 | 0.00 | 0.00 | 88 | 1010.1 |
| 20260506093603 | 63 | 230 | 4.0 | 11.0 | 0.00 | 0.00 | 0.00 | 87 | 1010.1 |
| 20260506092703 | 63 | 231 | 3.0 | 8.0 | 0.00 | 0.00 | 0.00 | 87 | 1010.0 |
| 20260506091803 | 63 | 228 | 5.0 | 17.0 | 0.00 | 0.00 | 0.00 | 87 | 1010.2 |
| 20260506090903 | 63 | 229 | 4.0 | 11.0 | 0.00 | 0.00 | 0.00 | 87 | 1010.3 |
| 20260506090216 | 63 | 230 | 4.0 | 14.0 | 0.00 | 0.00 | 0.00 | 87 | 1010.3 |
| 20260506085403 | 63 | 225 | 4.0 | 11.0 | 0.00 | 0.00 | 0.00 | 87 | 1010.4 |
| 20260506084503 | 64 | 223 | 3.0 | 10.0 | 0.00 | 0.00 | 0.00 | 86 | 1010.5 |
| 20260506083813 | 64 | 221 | 3.0 | 11.0 | 0.00 | 0.00 | 0.00 | 86 | 1010.5 |
| 20260506082703 | 64 | 222 | 4.0 | 11.0 | 0.00 | 0.00 | 0.00 | 86 | 1010.7 |
| 20260506081803 | 64 | 230 | 4.0 | 11.0 | 0.00 | 0.00 | 0.00 | 86 | 1010.6 |
| 20260506080903 | 64 | 224 | 4.0 | 11.0 | 0.00 | 0.00 | 0.00 | 86 | 1010.7 |
| 20260506080217 | 64 | 223 | 3.0 | 10.0 | 0.00 | 0.00 | 0.00 | 86 | 1010.5 |
| 20260506072703 | 64 | 220 | 3.0 | 8.0 | 0.00 | 0.00 | 0.00 | 86 | 1010.5 |
| 20260506072013 | 64 | 228 | 4.0 | 11.0 | 0.00 | 0.00 | 0.00 | 85 | 1010.7 |
| 20260506071115 | 64 | 224 | 4.0 | 11.0 | 0.00 | 0.00 | 0.00 | 85 | 1010.8 |
| 20260506070213 | 64 | 229 | 3.0 | 10.0 | 0.00 | 0.00 | 0.00 | 85 | 1010.6 |
| 20260506061803 | 65 | 220 | 3.0 | 14.0 | 0.00 | 0.00 | 0.00 | 83 | 1010.7 |
| 20260506060903 | 65 | 216 | 3.0 | 10.0 | 0.00 | 0.00 | 0.00 | 82 | 1010.5 |
| 20260506051117 | 67 | 230 | 4.0 | 12.0 | 0.00 | 0.00 | 0.00 | 78 | 1010.8 |
| 20260506044503 | 67 | 234 | 4.0 | 15.0 | 0.00 | 0.00 | 0.00 | 77 | 1011.0 |
| 20260506043603 | 67 | 230 | 4.0 | 17.0 | 0.00 | 0.00 | 0.00 | 76 | 1011.0 |
| 20260506042912 | 67 | 225 | 4.0 | 14.0 | 0.00 | 0.00 | 0.00 | 76 | 1010.9 |
| 20260506042015 | 68 | 227 | 5.0 | 16.0 | 0.00 | 0.00 | 0.00 | 76 | 1011.2 |
| 20260506041112 | 68 | 228 | 4.0 | 11.0 | 0.00 | 0.00 | 0.00 | 75 | 1011.2 |
| 20260506040004 | 68 | 221 | 5.0 | 14.0 | 0.00 | 0.00 | 0.00 | 75 | 1011.1 |
| 20260506035403 | 68 | 231 | 5.0 | 14.0 | 0.00 | 0.00 | 0.00 | 75 | 1011.0 |
| 20260506034503 | 68 | 227 | 5.0 | 14.0 | 0.00 | 0.00 | 0.00 | 74 | 1011.2 |
| 20260506033603 | 68 | 228 | 4.0 | 14.0 | 0.00 | 0.00 | 0.00 | 74 | 1011.0 |
| 20260506032703 | 68 | 233 | 4.0 | 11.0 | 0.00 | 0.00 | 0.00 | 73 | 1010.9 |
| 20260506031803 | 68 | 227 | 5.0 | 14.0 | 0.00 | 0.00 | 0.00 | 73 | 1011.0 |
| 20260506030903 | 69 | 227 | 5.0 | 15.0 | 0.00 | 0.00 | 0.00 | 72 | 1011.1 |
| 20260506030003 | 69 | 235 | 5.0 | 17.0 | 0.00 | 0.00 | 0.00 | 72 | 1011.0 |
| 20260506025403 | 69 | 234 | 6.0 | 17.0 | 0.00 | 0.00 | 0.00 | 72 | 1011.0 |
| 20260506024503 | 69 | 229 | 5.0 | 14.0 | 0.00 | 0.00 | 0.00 | 71 | 1010.9 |
| 20260506023603 | 69 | 231 | 5.0 | 16.0 | 0.00 | 0.00 | 0.00 | 71 | 1011.1 |
| 20260506022703 | 69 | 222 | 5.0 | 16.0 | 0.00 | 0.00 | 0.00 | 70 | 1011.0 |
| 20260506021803 | 69 | 226 | 6.0 | 17.0 | 0.00 | 0.00 | 0.00 | 69 | 1011.1 |
| 20260506020903 | 69 | 222 | 5.0 | 15.0 | 0.00 | 0.00 | 0.00 | 69 | 1011.0 |
| 20260506020003 | 69 | 230 | 6.0 | 15.0 | 0.00 | 0.00 | 0.00 | 69 | 1011.1 |
| 20260506015403 | 70 | 232 | 6.0 | 15.0 | 0.00 | 0.00 | 0.00 | 68 | 1011.0 |
| 20260506014503 | 69 | 218 | 5.0 | 15.0 | 0.00 | 0.00 | 0.00 | 68 | 1010.7 |
| 20260506013817 | 70 | 222 | 5.0 | 14.0 | 0.00 | 0.00 | 0.00 | 68 | 1010.7 |
| 20260506012914 | 70 | 225 | 6.0 | 13.0 | 0.00 | 0.00 | 0.00 | 68 | 1010.6 |
| 20260506011803 | 70 | 237 | 5.0 | 15.0 | 0.00 | 0.00 | 0.00 | 66 | 1010.7 |
| 20260506010903 | 70 | 232 | 6.0 | 19.0 | 0.00 | 0.00 | 0.00 | 66 | 1010.4 |
| 20260506010003 | 70 | 225 | 5.0 | 14.0 | 0.00 | 0.00 | 0.00 | 66 | 1010.4 |
| 20260506005403 | 71 | 217 | 5.0 | 15.0 | 0.00 | 0.00 | 0.00 | 65 | 1010.3 |
| 20260506004503 | 71 | 225 | 5.0 | 14.0 | 0.00 | 0.00 | 0.00 | 64 | 1010.2 |
| 20260506003603 | 72 | 221 | 5.0 | 11.0 | 0.00 | 0.00 | 0.00 | 63 | 1010.2 |
| 20260506002703 | 72 | 220 | 5.0 | 17.0 | 0.00 | 0.00 | 0.00 | 63 | 1010.1 |
| 20260506001803 | 73 | 231 | 5.0 | 17.0 | 0.00 | 0.00 | 0.00 | 62 | 1010.0 |
| 20260506000903 | 73 | 229 | 5.0 | 14.0 | 0.00 | 0.00 | 0.00 | 61 | 1010.0 |
| 20260506000003 | 73 | 227 | 4.0 | 11.0 | 0.00 | 0.00 | 0.00 | 61 | 1009.8 |
| 20260505235403 | 74 | 229 | 4.0 | 12.0 | 0.00 | 0.00 | 0.00 | 60 | 1009.7 |
| 20260505234503 | 74 | 229 | 5.0 | 14.0 | 0.00 | 0.00 | 0.00 | 59 | 1009.6 |
| 20260505233813 | 75 | 218 | 4.0 | 13.0 | 0.00 | 0.00 | 0.00 | 58 | 1009.4 |
| 20260505232703 | 77 | 212 | 3.0 | 10.0 | 0.00 | 0.00 | 0.00 | 55 | 1009.4 |
| 20260505231803 | 78 | 232 | 4.0 | 14.0 | 0.00 | 0.00 | 0.00 | 52 | 1009.2 |
| 20260505230903 | 79 | 228 | 5.0 | 18.0 | 0.00 | 0.00 | 0.00 | 51 | 1009.2 |
| 20260505230003 | 79 | 224 | 4.0 | 18.0 | 0.00 | 0.00 | 0.00 | 51 | 1009.1 |
| 20260505225403 | 79 | 221 | 3.0 | 14.0 | 0.00 | 0.00 | 0.00 | 52 | 1009.0 |
| 20260505224503 | 80 | 230 | 4.0 | 10.0 | 0.00 | 0.00 | 0.00 | 51 | 1008.9 |
| 20260505223603 | 81 | 223 | 4.0 | 20.0 | 0.00 | 0.00 | 0.00 | 50 | 1008.7 |
| 20260505222703 | 82 | 215 | 4.0 | 14.0 | 0.00 | 0.00 | 0.00 | 50 | 1008.7 |
| 20260505221803 | 82 | 230 | 5.0 | 12.0 | 0.00 | 0.00 | 0.00 | 50 | 1008.6 |
| 20260505220903 | 82 | 233 | 6.0 | 20.0 | 0.00 | 0.00 | 0.00 | 49 | 1008.5 |
| 20260505220003 | 83 | 222 | 4.0 | 15.0 | 0.00 | 0.00 | 0.00 | 48 | 1008.4 |
| 20260505215615 | 84 | 218 | 4.0 | 11.0 | 0.00 | 0.00 | 0.00 | 48 | 1008.4 |
| 20260505214503 | 86 | 230 | 5.0 | 13.0 | 0.00 | 0.00 | 0.00 | 47 | 1008.3 |
| 20260505213603 | 86 | 227 | 7.0 | 18.0 | 0.00 | 0.00 | 0.00 | 39 | 1008.3 |
| 20260505212703 | 86 | 235 | 8.0 | 18.0 | 0.00 | 0.00 | 0.00 | 38 | 1008.2 |
| 20260505211803 | 87 | 226 | 8.0 | 21.0 | 0.00 | 0.00 | 0.00 | 38 | 1008.0 |
| 20260505211116 | 87 | 233 | 8.0 | 21.0 | 0.00 | 0.00 | 0.00 | 38 | 1008.1 |
| 20260505210003 | 88 | 228 | 7.0 | 16.0 | 0.00 | 0.00 | 0.00 | 39 | 1007.9 |
| 20260505205403 | 87 | 224 | 7.0 | 16.0 | 0.00 | 0.00 | 0.00 | 38 | 1007.9 |
| 20260505204713 | 88 | 230 | 6.0 | 18.0 | 0.00 | 0.00 | 0.00 | 39 | 1008.0 |
| 20260505203603 | 88 | 225 | 7.0 | 24.0 | 0.00 | 0.00 | 0.00 | 38 | 1008.1 |
| 20260505202703 | 87 | 234 | 7.0 | 16.0 | 0.00 | 0.00 | 0.00 | 37 | 1008.0 |
| 20260505201803 | 87 | 226 | 8.0 | 20.0 | 0.00 | 0.00 | 0.00 | 38 | 1008.0 |
| 20260505200903 | 88 | 222 | 6.0 | 21.0 | 0.00 | 0.00 | 0.00 | 37 | 1008.0 |
| 20260505200003 | 88 | 224 | 7.0 | 17.0 | 0.00 | 0.00 | 0.00 | 37 | 1008.1 |
| 20260505195403 | 87 | 234 | 8.0 | 17.0 | 0.00 | 0.00 | 0.00 | 37 | 1008.3 |
| 20260505194503 | 88 | 234 | 7.0 | 22.0 | 0.00 | 0.00 | 0.00 | 36 | 1008.1 |
| 20260505193603 | 88 | 233 | 6.0 | 18.0 | 0.00 | 0.00 | 0.00 | 38 | 1008.4 |
| 20260505192703 | 88 | 233 | 6.0 | 17.0 | 0.00 | 0.00 | 0.00 | 36 | 1008.4 |
| 20260505191803 | 87 | 231 | 8.0 | 18.0 | 0.00 | 0.00 | 0.00 | 37 | 1008.5 |
| 20260505190903 | 87 | 225 | 6.0 | 17.0 | 0.00 | 0.00 | 0.00 | 39 | 1008.7 |
| 20260505190003 | 87 | 221 | 4.0 | 15.0 | 0.00 | 0.00 | 0.00 | 41 | 1008.8 |
| 20260505185403 | 87 | 234 | 5.0 | 15.0 | 0.00 | 0.00 | 0.00 | 43 | 1009.0 |
| 20260505184503 | 87 | 234 | 5.0 | 13.0 | 0.00 | 0.00 | 0.00 | 42 | 1009.1 |
| 20260505183603 | 87 | 225 | 4.0 | 12.0 | 0.00 | 0.00 | 0.00 | 44 | 1009.2 |